Starlink 35033

operational
NORAD ID: 65468 Int'l Des: 2025-195 Owner: SPXS Country: US Constellation: starlink
LEOCIRCULAR

Starlink 35033について

説明を読み込み中...

リアルタイム位置

3D地球を読み込み中...

次回通過

高度履歴

Altitude vs Time

uPlot chart will show altitude changes over time

軌道要素

1 65468U 25195L 25294.12924919 .00056212 00000-0 14029-2 0 9994
2 65468 53.1598 188.0376 0000755 77.1941 282.9149 15.39665188 8602
Epoch: Oct 21, 2025 • Age: 21 hours

現在のステータス

高度 451.9 km
速度 7.65 km/s
衛星直下点 49.09°N, 142.23°W
打ち上げ日 Sep 3, 2025
運用期間 0.1 years
タイプ internet

技術仕様

分類 Payload
質量 575.00 kg
乾燥質量 530.00 kg
総質量 575.00 kg
長さ 0.30 m
直径 4.10 m
スパン 29.00 m
形状 Box + pan
製造者 SPXS
バスタイプ Starlink V2MO
フェーズステータス In Orbit
所有者/国 SPXS/US

大規模コンステレーション

Loading constellations...